timestamp,wind_dir_avg,wind_spd_avg,wind_spd_max_dir,wind_spd_gust,battery_voltage,lat,long
2022-12-08 00:04:00+00:00,73.0,6.12,67.0,7.97,12.41,47.59359,-54.27349
2022-12-08 00:14:01+00:00,78.0,4.61,77.0,6.51,12.41,47.59359,-54.27349
2022-12-08 00:24:01+00:00,72.0,4.99,67.0,5.88,12.41,47.59359,-54.27349
2022-12-08 00:34:01+00:00,72.0,5.56,72.0,6.91,12.41,47.59359,-54.27349
2022-12-08 00:44:01+00:00,71.0,5.35,74.0,6.0,12.41,47.59359,-54.27349
2022-12-08 00:54:01+00:00,69.0,4.87,65.0,5.67,12.41,47.59359,-54.27349
2022-12-08 01:04:01+00:00,75.0,4.99,65.0,6.87,12.41,47.59359,-54.27349
2022-12-08 01:14:00+00:00,77.0,3.58,81.0,4.49,12.41,47.59359,-54.27349
2022-12-08 01:24:00+00:00,75.0,3.94,75.0,5.16,12.41,47.59359,-54.27349
2022-12-08 01:34:00+00:00,81.0,3.26,88.0,5.56,12.41,47.59359,-54.27349
2022-12-08 01:44:00+00:00,70.0,4.87,72.0,5.69,12.41,47.59359,-54.27349
2022-12-08 01:54:00+00:00,73.0,3.6,76.0,5.64,12.41,47.59359,-54.27349
2022-12-08 02:04:00+00:00,70.0,4.64,72.0,6.83,12.41,47.59359,-54.27349
2022-12-08 02:14:01+00:00,63.0,4.5,65.0,5.13,12.33,47.59359,-54.27349
2022-12-08 02:24:01+00:00,67.0,4.56,70.0,5.45,12.33,47.59359,-54.27349
2022-12-08 02:34:01+00:00,69.0,4.47,65.0,5.21,12.33,47.59359,-54.27349
2022-12-08 02:44:01+00:00,86.0,2.14,96.0,3.77,12.33,47.59359,-54.27349
2022-12-08 02:54:01+00:00,77.0,2.63,88.0,3.71,12.33,47.59359,-54.27349
2022-12-08 03:04:01+00:00,80.0,2.21,59.0,3.43,12.33,47.59359,-54.27349
2022-12-08 03:14:00+00:00,101.0,2.09,120.0,4.52,12.33,47.59359,-54.27349
2022-12-08 03:24:00+00:00,92.0,3.21,112.0,4.88,12.33,47.59359,-54.27349
2022-12-08 03:34:00+00:00,113.0,2.41,90.0,3.77,12.33,47.59359,-54.27349
2022-12-08 03:44:00+00:00,94.0,2.88,122.0,4.34,12.33,47.59359,-54.27349
2022-12-08 03:54:00+00:00,94.0,3.1,100.0,4.38,12.33,47.59359,-54.27349
2022-12-08 04:04:00+00:00,101.0,2.9,103.0,4.81,12.33,47.59359,-54.27349
2022-12-08 04:14:01+00:00,96.0,2.74,112.0,3.84,12.33,47.59359,-54.27349
2022-12-08 04:24:01+00:00,76.0,2.86,84.0,4.0,12.33,47.59359,-54.27349
2022-12-08 04:34:01+00:00,89.0,2.22,107.0,2.94,12.33,47.59359,-54.27349
2022-12-08 04:44:01+00:00,93.0,2.68,99.0,3.46,12.33,47.59359,-54.27349
2022-12-08 04:54:01+00:00,81.0,2.66,78.0,4.5,12.33,47.59359,-54.27349
2022-12-08 05:04:01+00:00,113.0,1.28,112.0,2.5,12.33,47.59359,-54.27349
2022-12-08 05:14:01+00:00,109.0,2.74,128.0,4.34,12.33,47.59359,-54.27349
2022-12-08 05:24:01+00:00,95.0,1.11,114.0,1.75,12.33,47.59359,-54.27349
2022-12-08 05:34:01+00:00,91.0,1.83,109.0,2.71,12.33,47.59359,-54.27349
2022-12-08 05:44:01+00:00,101.0,1.86,110.0,2.74,12.33,47.59359,-54.27349
2022-12-08 05:54:01+00:00,87.0,1.53,67.0,2.63,12.33,47.59359,-54.27349
2022-12-08 06:04:01+00:00,110.0,2.4,119.0,3.56,12.33,47.59359,-54.27349
2022-12-08 06:14:00+00:00,106.0,2.48,114.0,4.62,12.33,47.59359,-54.27349
2022-12-08 06:24:00+00:00,87.0,2.62,93.0,3.84,12.33,47.59359,-54.27349
2022-12-08 06:34:00+00:00,114.0,2.33,126.0,3.72,12.33,47.59359,-54.27349
2022-12-08 06:44:00+00:00,96.0,1.9,85.0,2.93,12.33,47.59359,-54.27349
2022-12-08 06:54:00+00:00,95.0,1.81,114.0,3.07,12.33,47.59359,-54.27349
2022-12-08 07:04:00+00:00,71.0,2.59,68.0,3.53,12.33,47.59359,-54.27349
2022-12-08 07:14:00+00:00,79.0,0.99,76.0,1.73,12.33,47.59359,-54.27349
2022-12-08 07:24:00+00:00,96.0,2.06,110.0,3.28,12.33,47.59359,-54.27349
2022-12-08 07:34:00+00:00,85.0,1.37,119.0,2.31,12.33,47.59359,-54.27349
2022-12-08 07:44:00+00:00,80.0,2.78,80.0,4.09,12.33,47.59359,-54.27349
2022-12-08 07:54:00+00:00,76.0,2.63,68.0,3.8,12.33,47.59359,-54.27349
2022-12-08 08:04:00+00:00,76.0,2.12,96.0,3.13,12.33,47.59359,-54.27349
2022-12-08 08:14:01+00:00,67.0,1.9,52.0,2.99,12.25,47.59359,-54.27349
2022-12-08 08:24:01+00:00,79.0,2.56,98.0,3.4,12.25,47.59359,-54.27349
2022-12-08 08:34:01+00:00,59.0,3.3,54.0,3.74,12.25,47.59359,-54.27349
2022-12-08 08:44:01+00:00,75.0,3.11,84.0,4.27,12.25,47.59359,-54.27349
2022-12-08 08:54:01+00:00,77.0,2.36,75.0,3.18,12.25,47.59359,-54.27349
2022-12-08 09:04:01+00:00,69.0,3.1,64.0,3.65,12.25,47.59359,-54.27349
2022-12-08 09:14:00+00:00,73.0,3.23,59.0,4.13,12.25,47.59359,-54.27349
2022-12-08 09:24:00+00:00,70.0,4.7,69.0,5.23,12.25,47.59359,-54.27349
2022-12-08 09:34:00+00:00,75.0,4.77,80.0,8.0,12.25,47.59359,-54.27349
2022-12-08 09:44:00+00:00,74.0,3.69,79.0,5.04,12.25,47.59359,-54.27349
2022-12-08 09:54:00+00:00,83.0,2.95,93.0,4.76,12.25,47.59359,-54.27349
2022-12-08 10:04:00+00:00,71.0,4.32,75.0,4.75,12.25,47.59359,-54.27349
2022-12-08 10:14:00+00:00,71.0,4.52,78.0,5.09,12.25,47.59359,-54.27349
2022-12-08 10:24:00+00:00,75.0,3.83,71.0,5.68,12.25,47.59359,-54.27349
2022-12-08 10:34:00+00:00,103.0,3.16,112.0,5.58,12.25,47.59359,-54.27349
2022-12-08 10:44:00+00:00,83.0,3.75,71.0,6.22,12.25,47.59359,-54.27349
2022-12-08 10:54:00+00:00,74.0,4.68,74.0,6.27,12.25,47.59359,-54.27349
2022-12-08 11:04:00+00:00,73.0,3.99,73.0,5.14,12.25,47.59359,-54.27349
2022-12-08 11:14:00+00:00,77.0,4.05,81.0,5.34,12.25,47.59359,-54.27349
2022-12-08 11:24:00+00:00,80.0,4.29,80.0,6.67,12.25,47.59359,-54.27349
2022-12-08 11:34:00+00:00,95.0,3.76,100.0,6.62,12.25,47.59359,-54.27349
2022-12-08 11:44:00+00:00,90.0,2.99,113.0,4.22,12.25,47.59359,-54.27349
2022-12-08 11:54:00+00:00,87.0,3.72,91.0,6.0,12.25,47.59359,-54.27349
2022-12-08 12:04:00+00:00,96.0,3.52,105.0,5.26,12.25,47.59359,-54.27349
2022-12-08 12:14:00+00:00,97.0,3.27,102.0,5.43,12.25,47.59359,-54.27349
2022-12-08 12:24:00+00:00,75.0,2.98,68.0,3.86,12.25,47.59359,-54.27349
2022-12-08 12:34:00+00:00,82.0,3.53,84.0,4.57,12.25,47.59359,-54.27349
2022-12-08 12:44:00+00:00,101.0,3.74,111.0,5.06,12.25,47.59359,-54.27349
2022-12-08 12:54:00+00:00,115.0,4.08,116.0,7.2,12.25,47.59359,-54.27349
2022-12-08 13:04:00+00:00,103.0,3.54,105.0,5.99,12.25,47.59359,-54.27349
2022-12-08 13:14:00+00:00,100.0,3.87,77.0,5.72,12.49,47.59359,-54.27349
2022-12-08 13:24:00+00:00,101.0,3.15,95.0,4.84,12.49,47.59359,-54.27349
2022-12-08 13:34:00+00:00,100.0,2.2,111.0,4.16,12.49,47.59359,-54.27349
2022-12-08 13:44:00+00:00,102.0,3.59,97.0,5.88,12.49,47.59359,-54.27349
2022-12-08 13:54:00+00:00,105.0,4.13,77.0,7.04,12.49,47.59359,-54.27349
2022-12-08 14:04:00+00:00,91.0,2.44,109.0,4.18,12.49,47.59359,-54.27349
2022-12-08 14:14:01+00:00,125.0,5.86,130.0,6.93,12.89,47.59359,-54.27349
2022-12-08 14:24:01+00:00,99.0,2.78,100.0,4.58,12.89,47.59359,-54.27349
2022-12-08 14:34:01+00:00,96.0,2.27,109.0,4.04,12.89,47.59359,-54.27349
2022-12-08 14:44:01+00:00,101.0,0.93,129.0,1.62,12.89,47.59359,-54.27349
2022-12-08 14:54:01+00:00,102.0,1.72,124.0,3.08,12.89,47.59359,-54.27349
2022-12-08 15:04:01+00:00,103.0,1.94,110.0,3.59,12.89,47.59359,-54.27349
2022-12-08 15:14:00+00:00,112.0,2.26,122.0,3.1,14.48,47.59359,-54.27349
2022-12-08 15:24:00+00:00,96.0,2.72,88.0,4.26,14.48,47.59359,-54.27349
2022-12-08 15:34:00+00:00,80.0,2.23,85.0,3.25,14.48,47.59359,-54.27349
2022-12-08 15:44:00+00:00,85.0,2.15,81.0,3.97,14.48,47.59359,-54.27349
2022-12-08 15:54:00+00:00,80.0,2.53,74.0,4.21,14.48,47.59359,-54.27349
2022-12-08 16:04:00+00:00,66.0,2.09,60.0,3.12,14.48,47.59359,-54.27349
2022-12-08 16:14:00+00:00,77.0,2.54,82.0,4.31,13.13,47.59359,-54.27349
2022-12-08 16:24:00+00:00,85.0,2.11,70.0,3.65,13.13,47.59359,-54.27349
2022-12-08 16:34:00+00:00,77.0,3.21,89.0,4.57,13.13,47.59359,-54.27349
2022-12-08 16:44:00+00:00,57.0,4.44,54.0,5.03,13.13,47.59359,-54.27349
2022-12-08 16:54:00+00:00,57.0,5.53,55.0,5.93,13.13,47.59359,-54.27349
2022-12-08 17:04:00+00:00,57.0,5.07,59.0,5.64,13.13,47.59359,-54.27349
2022-12-08 17:14:01+00:00,57.0,4.9,56.0,5.45,13.05,47.59359,-54.27349
2022-12-08 17:24:01+00:00,56.0,5.05,57.0,5.36,13.05,47.59359,-54.27349
2022-12-08 17:34:01+00:00,60.0,3.65,61.0,4.32,13.05,47.59359,-54.27349
2022-12-08 17:44:01+00:00,61.0,3.64,68.0,4.53,13.05,47.59359,-54.27349
2022-12-08 17:54:01+00:00,83.0,2.93,81.0,4.84,13.05,47.59359,-54.27349
2022-12-08 18:04:01+00:00,67.0,4.33,66.0,5.87,13.05,47.59359,-54.27349
2022-12-08 18:14:00+00:00,72.0,2.9,67.0,3.89,12.97,47.59359,-54.27349
2022-12-08 18:24:00+00:00,92.0,3.09,86.0,4.67,12.97,47.59359,-54.27349
2022-12-08 18:34:00+00:00,101.0,2.75,92.0,5.03,12.97,47.59359,-54.27349
2022-12-08 18:44:00+00:00,102.0,2.73,88.0,3.75,12.97,47.59359,-54.27349
2022-12-08 18:54:00+00:00,90.0,2.99,80.0,4.9,12.97,47.59359,-54.27349
2022-12-08 19:04:00+00:00,84.0,2.91,71.0,4.32,12.97,47.59359,-54.27349
2022-12-08 19:14:01+00:00,68.0,2.62,60.0,3.63,12.65,47.59359,-54.27349
2022-12-08 19:24:01+00:00,73.0,2.34,68.0,2.91,12.65,47.59359,-54.27349
2022-12-08 19:34:01+00:00,71.0,2.98,60.0,3.75,12.65,47.59359,-54.27349
2022-12-08 19:44:01+00:00,77.0,2.48,70.0,4.14,12.65,47.59359,-54.27349
2022-12-08 19:54:01+00:00,70.0,2.57,106.0,3.78,12.65,47.59359,-54.27349
2022-12-08 20:04:01+00:00,78.0,2.97,72.0,5.05,12.65,47.59359,-54.27349
2022-12-08 20:14:00+00:00,79.0,3.02,64.0,4.65,12.49,47.59359,-54.27349
2022-12-08 20:24:00+00:00,74.0,2.64,75.0,4.71,12.49,47.59359,-54.27349
2022-12-08 20:34:00+00:00,69.0,2.3,79.0,3.94,12.49,47.59359,-54.27349
2022-12-08 20:44:00+00:00,71.0,2.62,68.0,4.3,12.49,47.59359,-54.27349
2022-12-08 20:54:00+00:00,70.0,3.78,70.0,5.1,12.49,47.59359,-54.27349
2022-12-08 21:04:00+00:00,86.0,2.14,92.0,3.46,12.49,47.59359,-54.27349
2022-12-08 21:14:00+00:00,79.0,2.47,66.0,3.76,12.41,47.59359,-54.27349
2022-12-08 21:24:00+00:00,75.0,3.22,66.0,3.93,12.41,47.59359,-54.27349
2022-12-08 21:34:00+00:00,79.0,2.33,60.0,3.9,12.41,47.59359,-54.27349
2022-12-08 21:44:00+00:00,74.0,3.03,65.0,4.45,12.41,47.59359,-54.27349
2022-12-08 21:54:00+00:00,77.0,2.85,92.0,4.3,12.41,47.59359,-54.27349
2022-12-08 22:04:00+00:00,78.0,2.93,76.0,3.89,12.41,47.59359,-54.27349
2022-12-08 22:14:00+00:00,56.0,3.25,58.0,3.76,12.41,47.59359,-54.27349
2022-12-08 22:24:00+00:00,79.0,2.66,89.0,3.78,12.41,47.59359,-54.27349
2022-12-08 22:34:00+00:00,77.0,4.22,65.0,6.25,12.41,47.59359,-54.27349
2022-12-08 22:44:00+00:00,78.0,3.32,87.0,4.82,12.41,47.59359,-54.27349
2022-12-08 22:54:00+00:00,75.0,3.43,69.0,4.84,12.41,47.59359,-54.27349
2022-12-08 23:04:00+00:00,85.0,3.94,85.0,5.26,12.41,47.59359,-54.27349
2022-12-08 23:14:01+00:00,80.0,3.7,92.0,5.98,12.41,47.59359,-54.27349
2022-12-08 23:24:01+00:00,88.0,3.14,88.0,5.61,12.41,47.59359,-54.27349
2022-12-08 23:34:01+00:00,79.0,3.56,91.0,5.03,12.41,47.59359,-54.27349
2022-12-08 23:44:01+00:00,76.0,3.43,85.0,4.91,12.41,47.59359,-54.27349
2022-12-08 23:54:01+00:00,89.0,2.37,111.0,4.28,12.41,47.59359,-54.27349
